WA4BPS Weather Reports


time (UTC)temp
C
wind
direction
speed
KPH
gust
KPH
rain 1hr
cm
rain 24hr
cm
rain mn
cm
humidity
%
barometer
mb
20260504025925 12 226 11.3 19.3 0.00 0.00 0.00 54 1014.7
20260504025843 12 274 12.9 19.3 0.00 0.00 0.00 54 1014.7
20260504025741 12 318 12.9 19.3 0.00 0.00 0.00 55 1014.7
20260504025639 12 284 12.9 19.3 0.00 0.00 0.00 55 1014.7
20260504025601 12 268 9.7 19.3 0.00 0.00 0.00 55 1014.7
20260504025439 12 247 9.7 19.3 0.00 0.00 0.00 55 1014.7
20260504025337 12 315 9.7 14.5 0.00 0.00 0.00 56 1014.7
20260504025235 12 294 8.0 14.5 0.00 0.00 0.00 56 1014.7
20260504025134 12 305 9.7 14.5 0.00 0.00 0.00 56 1014.7
20260504025032 12 323 8.0 14.5 0.00 0.00 0.00 56 1014.7
20260504024930 12 260 11.3 14.5 0.00 0.00 0.00 56 1014.7
20260504024833 12 315 11.3 14.5 0.00 0.00 0.00 56 1014.7
20260504024752 12 287 9.7 14.5 0.00 0.00 0.00 56 1014.7
20260504024702 12 301 8.0 14.5 0.00 0.00 0.00 56 1014.7
20260504024540 12 243 9.7 14.5 0.00 0.00 0.00 56 1014.7
20260504024439 12 288 8.0 14.5 0.00 0.00 0.00 56 1014.7
20260504024338 12 315 9.7 14.5 0.00 0.00 0.00 56 1014.7
20260504024236 12 298 9.7 14.5 0.00 0.00 0.00 56 1014.7
20260504024139 12 301 9.7 14.5 0.00 0.00 0.00 56 1014.7
20260504024038 12 329 9.7 14.5 0.00 0.00 0.00 56 1014.7
20260504023938 12 268 6.4 12.9 0.00 0.00 0.00 56 1014.7
20260504023836 12 260 9.7 12.9 0.00 0.00 0.00 56 1014.7
20260504023735 12 280 9.7 12.9 0.00 0.00 0.00 56 1014.7
20260504023652 12 265 8.0 12.9 0.00 0.00 0.00 55 1014.7
20260504023530 12 326 8.0 12.9 0.00 0.00 0.00 56 1014.7
20260504023433 12 304 9.7 12.9 0.00 0.00 0.00 56 1014.7
20260504023331 12 312 9.7 12.9 0.00 0.00 0.00 56 1014.7
20260504023242 12 329 6.4 12.9 0.00 0.00 0.00 56 1014.7
20260504023152 12 332 9.7 12.9 0.00 0.00 0.00 56 1014.7
20260504023027 12 285 8.0 12.9 0.00 0.00 0.00 56 1014.7
20260504022926 12 306 6.4 12.9 0.00 0.00 0.00 56 1014.7
20260504022824 12 319 6.4 12.9 0.00 0.00 0.00 56 1014.6
20260504022730 12 294 8.0 12.9 0.00 0.00 0.00 56 1014.6
20260504022649 12 267 6.4 12.9 0.00 0.00 0.00 56 1014.6
20260504022546 12 330 6.4 12.9 0.00 0.00 0.00 56 1014.6
20260504022443 12 243 6.4 12.9 0.00 0.00 0.00 56 1014.6
20260504022341 12 332 9.7 12.9 0.00 0.00 0.00 56 1014.6
20260504022239 12 323 8.0 12.9 0.00 0.00 0.00 58 1014.6
20260504022137 12 325 8.0 12.9 0.00 0.00 0.00 59 1014.6
20260504022056 12 328 8.0 12.9 0.00 0.00 0.00 58 1014.6
20260504021932 12 288 8.0 12.9 0.00 0.00 0.00 58 1014.6
20260504021835 12 237 6.4 12.9 0.00 0.00 0.00 59 1014.6
20260504021734 12 263 9.7 12.9 0.00 0.00 0.00 59 1014.6
20260504021703 12 302 6.4 12.9 0.00 0.00 0.00 59 1014.6
20260504021542 12 332 4.8 11.3 0.00 0.00 0.00 59 1014.6
20260504021502 12 260 4.8 11.3 0.00 0.00 0.00 59 1014.6
20260504021339 12 251 6.4 11.3 0.00 0.00 0.00 59 1014.5
20260504021257 12 332 8.0 12.9 0.00 0.00 0.00 59 1014.5
20260504021134 12 330 6.4 12.9 0.00 0.00 0.00 59 1014.5
20260504021057 12 326 4.8 12.9 0.00 0.00 0.00 59 1014.5
20260504020954 12 330 8.0 12.9 0.00 0.00 0.00 59 1014.5
20260504020830 12 333 6.4 12.9 0.00 0.00 0.00 59 1014.5
20260504020729 12 261 8.0 12.9 0.00 0.00 0.00 59 1014.5
20260504020629 12 322 6.4 12.9 0.00 0.00 0.00 60 1014.5
20260504020547 12 330 8.0 12.9 0.00 0.00 0.00 59 1014.5
20260504020504 12 263 8.0 12.9 0.00 0.00 0.00 59 1014.5
20260504020342 12 254 8.0 11.3 0.00 0.00 0.00 59 1014.5
20260504020225 12 332 4.8 11.3 0.00 0.00 0.00 59 1014.5
20260504020155 12 258 3.2 9.7 0.00 0.00 0.00 59 1014.5
20260504020032 12 329 3.2 9.7 0.00 0.00 0.00 58 1014.5
20260504015949 12 306 4.8 9.7 0.00 0.00 0.00 57 1014.5
20260504015828 12 330 6.4 9.7 0.00 0.00 0.00 56 1014.3
20260504015725 12 319 4.8 9.7 0.00 0.00 0.00 56 1014.3
20260504015624 12 330 4.8 9.7 0.00 0.00 0.00 56 1014.3
20260504015526 12 329 4.8 9.7 0.00 0.00 0.00 56 1014.3
20260504015445 12 270 4.8 9.7 0.00 0.00 0.00 55 1014.3
20260504015404 12 332 3.2 9.7 0.00 0.00 0.00 55 1014.3
20260504015301 12 315 1.6 9.7 0.00 0.00 0.00 56 1014.3
20260504015138 12 332 3.2 11.3 0.00 0.00 0.00 57 1014.3
20260504015036 12 332 3.2 11.3 0.00 0.00 0.00 57 1014.3
20260504014954 12 330 3.2 11.3 0.00 0.00 0.00 57 1014.3
20260504014832 12 308 6.4 11.3 0.00 0.00 0.00 57 1014.3
20260504014730 12 265 4.8 11.3 0.00 0.00 0.00 58 1014.3
20260504014704 12 333 6.4 11.3 0.00 0.00 0.00 57 1014.3
20260504014542 12 309 6.4 11.3 0.00 0.00 0.00 59 1014.3
20260504014500 12 256 6.4 11.3 0.00 0.00 0.00 59 1014.3
20260504014358 12 329 8.0 11.3 0.00 0.00 0.00 59 1014.1
20260504014236 12 284 4.8 11.3 0.00 0.00 0.00 59 1014.1
20260504014133 12 244 3.2 11.3 0.00 0.00 0.00 59 1014.1
20260504014052 12 299 6.4 11.3 0.00 0.00 0.00 58 1014.1
20260504013929 12 270 6.4 11.3 0.00 0.00 0.00 58 1014.1
20260504013830 12 320 8.0 11.3 0.00 0.00 0.00 57 1014.1
20260504013730 12 294 6.4 11.3 0.00 0.00 0.00 57 1014.1
20260504013628 12 330 4.8 11.3 0.00 0.00 0.00 57 1014.1
20260504013525 12 261 4.8 11.3 0.00 0.00 0.00 56 1014.1
20260504013424 12 296 6.4 11.3 0.00 0.00 0.00 56 1014.1
20260504013343 12 332 6.4 11.3 0.00 0.00 0.00 56 1014.1
20260504013231 12 330 3.2 11.3 0.00 0.00 0.00 56 1014.1
20260504013146 12 332 3.2 11.3 0.00 0.00 0.00 56 1014.1
20260504013025 12 326 8.0 11.3 0.00 0.00 0.00 56 1014.1
20260504012924 12 333 4.8 9.7 0.00 0.00 0.00 56 1014.1
20260504012824 12 326 4.8 9.7 0.00 0.00 0.00 56 1013.9
20260504012726 13 329 1.6 9.7 0.00 0.00 0.00 57 1013.9
20260504012626 13 280 4.8 9.7 0.00 0.00 0.00 57 1013.9
20260504012544 13 316 6.4 9.7 0.00 0.00 0.00 58 1013.9
20260504012426 13 333 6.4 9.7 0.00 0.00 0.00 58 1013.9
20260504012344 13 337 6.4 9.7 0.00 0.00 0.00 57 1013.9
20260504012305 13 333 6.4 11.3 0.00 0.00 0.00 57 1013.9
20260504012142 13 337 6.4 11.3 0.00 0.00 0.00 57 1013.9
20260504012100 13 322 6.4 11.3 0.00 0.00 0.00 56 1013.9
20260504011937 13 315 4.8 11.3 0.00 0.00 0.00 56 1013.9
20260504011856 13 333 6.4 11.3 0.00 0.00 0.00 56 1013.9
20260504011732 13 330 8.0 12.9 0.00 0.00 0.00 56 1013.9
20260504011703 13 311 8.0 12.9 0.00 0.00 0.00 56 1013.9
20260504011604 13 333 6.4 12.9 0.00 0.00 0.00 56 1013.9
20260504011442 13 332 6.4 12.9 0.00 0.00 0.00 56 1013.9
20260504011342 13 301 6.4 12.9 0.00 0.00 0.00 56 1013.2
20260504011241 13 320 4.8 12.9 0.00 0.00 0.00 55 1013.2
20260504011139 13 330 6.4 12.9 0.00 0.00 0.00 56 1013.2
20260504011038 13 329 4.8 12.9 0.00 0.00 0.00 56 1013.2
20260504010936 13 320 6.4 12.9 0.00 0.00 0.00 56 1013.2
20260504010838 13 333 6.4 12.9 0.00 0.00 0.00 54 1013.2
20260504010736 13 329 6.4 9.7 0.00 0.00 0.00 54 1013.2
20260504010634 13 332 4.8 9.7 0.00 0.00 0.00 54 1013.2
20260504010532 13 326 4.8 9.7 0.00 0.00 0.00 53 1013.2
20260504010430 13 333 4.8 9.7 0.00 0.00 0.00 53 1013.2
20260504010330 13 329 3.2 8.0 0.00 0.00 0.00 53 1013.2
20260504010228 13 325 1.6 8.0 0.00 0.00 0.00 54 1013.2
20260504010202 13 332 3.2 8.0 0.00 0.00 0.00 54 1013.2
20260504010039 13 332 3.2 8.0 0.00 0.00 0.00 53 1013.2
20260504005937 13 333 4.8 8.0 0.00 0.00 0.00 53 1013.2
20260504005835 13 326 3.2 6.4 0.00 0.00 0.00 51 1014.0
20260504005733 13 304 4.8 6.4 0.00 0.00 0.00 50 1014.0
20260504005630 13 333 3.2 6.4 0.00 0.00 0.00 51 1014.0
20260504005529 13 330 3.2 4.8 0.00 0.00 0.00 50 1014.0
20260504005431 14 333 3.2 4.8 0.00 0.00 0.00 50 1014.0
20260504005351 14 330 3.2 4.8 0.00 0.00 0.00 50 1014.0
20260504005250 14 333 4.8 4.8 0.00 0.00 0.00 50 1014.0
20260504005127 14 335 1.6 4.8 0.00 0.00 0.00 50 1014.0
20260504005025 14 318 0.0 4.8 0.00 0.00 0.00 50 1014.0
20260504004943 14 332 0.0 4.8 0.00 0.00 0.00 50 1014.0
20260504004843 14 325 1.6 4.8 0.00 0.00 0.00 51 1014.0
20260504004725 14 329 3.2 8.0 0.00 0.00 0.00 51 1014.0
20260504004655 14 325 1.6 9.7 0.00 0.00 0.00 51 1014.0
20260504004532 14 330 1.6 9.7 0.00 0.00 0.00 50 1014.0
20260504004430 14 328 0.0 9.7 0.00 0.00 0.00 50 1014.0
20260504004330 14 325 0.0 9.7 0.00 0.00 0.00 49 1013.9
20260504004228 14 323 1.6 9.7 0.00 0.00 0.00 49 1013.9
20260504004126 14 332 0.0 9.7 0.00 0.00 0.00 49 1013.9
20260504004029 14 309 0.0 9.7 0.00 0.00 0.00 48 1013.9
20260504003927 14 330 1.6 9.7 0.00 0.00 0.00 48 1013.9
20260504003826 15 323 1.6 9.7 0.00 0.00 0.00 48 1013.9
20260504003727 15 318 1.6 4.8 0.00 0.00 0.00 48 1013.9
20260504003625 15 319 1.6 4.8 0.00 0.00 0.00 47 1013.9
20260504003544 15 318 1.6 4.8 0.00 0.00 0.00 47 1013.9
20260504003441 15 323 1.6 4.8 0.00 0.00 0.00 47 1013.9
20260504003345 15 330 1.6 4.8 0.00 0.00 0.00 47 1013.9
20260504003243 15 320 1.6 4.8 0.00 0.00 0.00 46 1013.9
20260504003214 15 313 1.6 4.8 0.00 0.00 0.00 46 1013.9
20260504003028 15 332 1.6 4.8 0.00 0.00 0.00 47 1013.9
20260504002927 15 329 0.0 4.8 0.00 0.00 0.00 46 1013.9
20260504002825 15 312 0.0 9.7 0.00 0.00 0.00 47 1013.9
20260504002743 15 316 1.6 9.7 0.00 0.00 0.00 46 1013.9
20260504002642 15 330 3.2 12.9 0.00 0.00 0.00 46 1013.9
20260504002601 15 332 3.2 12.9 0.00 0.00 0.00 47 1013.9
20260504002437 15 332 1.6 12.9 0.00 0.00 0.00 47 1013.9
20260504002339 15 329 1.6 12.9 0.00 0.00 0.00 47 1013.9
20260504002237 15 330 1.6 12.9 0.00 0.00 0.00 47 1013.9
20260504002136 15 332 3.2 12.9 0.00 0.00 0.00 46 1013.9
20260504002054 15 329 3.2 12.9 0.00 0.00 0.00 46 1013.9
20260504001932 15 328 0.0 12.9 0.00 0.00 0.00 46 1013.9
20260504001829 15 325 4.8 12.9 0.00 0.00 0.00 46 1013.9
20260504001737 15 322 6.4 12.9 0.00 0.00 0.00 46 1013.9
20260504001647 15 318 4.8 17.7 0.00 0.00 0.00 46 1013.9
20260504001548 15 330 4.8 17.7 0.00 0.00 0.00 46 1013.9
20260504001425 15 322 4.8 17.7 0.00 0.00 0.00 45 1013.9
20260504001344 15 333 8.0 17.7 0.00 0.00 0.00 45 1014.1
20260504001303 15 319 6.4 17.7 0.00 0.00 0.00 45 1014.1
20260504001139 15 316 4.8 17.7 0.00 0.00 0.00 46 1014.1
20260504001038 15 328 3.2 17.7 0.00 0.00 0.00 46 1014.1
20260504000936 15 326 4.8 17.7 0.00 0.00 0.00 46 1014.1
20260504000834 15 320 6.4 17.7 0.00 0.00 0.00 46 1014.1
20260504000736 15 312 6.4 14.5 0.00 0.00 0.00 46 1014.1
20260504000635 15 318 6.4 11.3 0.00 0.00 0.00 45 1014.1
20260504000533 15 318 6.4 9.7 0.00 0.00 0.00 45 1014.1
20260504000431 15 312 3.2 9.7 0.00 0.00 0.00 45 1014.1
20260504000329 15 326 4.8 9.7 0.00 0.00 0.00 44 1014.1
20260504000241 15 320 3.2 9.7 0.00 0.00 0.00 44 1014.1
20260504000151 15 325 3.2 16.1 0.00 0.00 0.00 44 1014.1
20260504000031 15 323 1.6 16.1 0.00 0.00 0.00 44 1014.1
20260503235949 15 325 1.6 16.1 0.00 0.00 0.00 44 1014.1
20260503235827 15 332 6.4 16.1 0.00 0.00 0.00 44 1014.2
20260503235726 15 326 4.8 16.1 0.00 0.00 0.00 44 1014.2
20260503235645 15 332 3.2 19.3 0.00 0.00 0.00 44 1014.2
20260503235604 15 315 3.2 19.3 0.00 0.00 0.00 43 1014.2
20260503235441 15 325 4.8 19.3 0.00 0.00 0.00 42 1014.2
20260503235326 15 313 8.0 19.3 0.00 0.00 0.00 41 1014.2
20260503235223 15 332 4.8 19.3 0.00 0.00 0.00 41 1014.2
20260503235142 16 318 4.8 19.3 0.00 0.00 0.00 41 1014.2
20260503235040 16 323 4.8 19.3 0.00 0.00 0.00 42 1014.2
20260503234939 16 322 1.6 19.3 0.00 0.00 0.00 42 1014.2
20260503234836 16 319 8.0 19.3 0.00 0.00 0.00 42 1014.2
20260503234734 16 322 12.9 16.1 0.00 0.00 0.00 44 1014.2
20260503234704 16 322 11.3 16.1 0.00 0.00 0.00 44 1014.2
20260503234602 16 325 4.8 19.3 0.00 0.00 0.00 45 1014.2
20260503234441 16 322 3.2 19.3 0.00 0.00 0.00 45 1014.2
20260503234339 16 289 3.2 19.3 0.00 0.00 0.00 45 1014.2
20260503234238 16 322 1.6 19.3 0.00 0.00 0.00 45 1014.2
20260503234136 16 301 4.8 19.3 0.00 0.00 0.00 46 1014.2
20260503234034 16 320 6.4 19.3 0.00 0.00 0.00 45 1014.2
20260503233932 16 311 4.8 19.3 0.00 0.00 0.00 46 1014.2
20260503233831 16 316 4.8 19.3 0.00 0.00 0.00 45 1014.2
20260503233753 16 319 9.7 19.3 0.00 0.00 0.00 44 1014.2
20260503233631 16 326 9.7 19.3 0.00 0.00 0.00 45 1014.2
20260503233529 16 330 6.4 19.3 0.00 0.00 0.00 46 1014.2
20260503233427 16 333 8.0 19.3 0.00 0.00 0.00 45 1014.2
20260503233326 16 328 3.2 14.5 0.00 0.00 0.00 46 1014.2
20260503233225 16 313 4.8 14.5 0.00 0.00 0.00 46 1014.2
20260503233157 16 323 6.4 14.5 0.00 0.00 0.00 46 1014.2
20260503233038 16 320 11.3 16.1 0.00 0.00 0.00 46 1014.2
20260503232936 16 329 8.0 16.1 0.00 0.00 0.00 46 1014.2
20260503232835 16 328 6.4 16.1 0.00 0.00 0.00 45 1014.3
20260503232732 16 332 8.0 16.1 0.00 0.00 0.00 45 1014.3
20260503232630 16 320 8.0 16.1 0.00 0.00 0.00 45 1014.3
20260503232528 16 326 1.6 16.1 0.00 0.00 0.00 44 1014.3
20260503232427 16 309 1.6 16.1 0.00 0.00 0.00 44 1014.3
20260503232329 16 277 3.2 16.1 0.00 0.00 0.00 44 1014.3
20260503232227 16 312 8.0 16.1 0.00 0.00 0.00 44 1014.3
20260503232126 16 299 4.8 14.5 0.00 0.00 0.00 43 1014.3
20260503232025 16 315 6.4 19.3 0.00 0.00 0.00 44 1014.3
20260503231925 16 320 8.0 19.3 0.00 0.00 0.00 44 1014.3
20260503231842 16 306 8.0 19.3 0.00 0.00 0.00 44 1014.3
20260503231736 16 315 8.0 19.3 0.00 0.00 0.00 44 1014.3
20260503231645 16 316 3.2 19.3 0.00 0.00 0.00 43 1014.3
20260503231524 16 308 8.0 19.3 0.00 0.00 0.00 43 1014.3
20260503231443 16 304 4.8 19.3 0.00 0.00 0.00 43 1014.3
20260503231340 16 296 1.6 19.3 0.00 0.00 0.00 43 1014.3
20260503231238 16 332 9.7 19.3 0.00 0.00 0.00 42 1014.3
20260503231137 16 322 6.4 16.1 0.00 0.00 0.00 43 1014.3
20260503231057 16 306 9.7 16.1 0.00 0.00 0.00 42 1014.3
20260503230955 16 298 8.0 16.1 0.00 0.00 0.00 41 1014.3
20260503230836 16 329 8.0 16.1 0.00 0.00 0.00 43 1014.3
20260503230754 16 319 11.3 16.1 0.00 0.00 0.00 42 1014.3
20260503230631 16 322 8.0 16.1 0.00 0.00 0.00 42 1014.3
20260503230531 16 323 8.0 16.1 0.00 0.00 0.00 42 1014.3
20260503230430 16 315 4.8 16.1 0.00 0.00 0.00 42 1014.3
20260503230349 16 318 8.0 16.1 0.00 0.00 0.00 41 1014.3
20260503230225 16 319 3.2 16.1 0.00 0.00 0.00 42 1014.3
20260503230158 16 322 3.2 20.9 0.00 0.00 0.00 42 1014.3
20260503230041 16 326 4.8 20.9 0.00 0.00 0.00 42 1014.3
20260503225939 16 304 1.6 20.9 0.00 0.00 0.00 43 1014.3
20260503225837 16 316 6.4 20.9 0.00 0.00 0.00 43 1014.3
20260503225736 16 285 6.4 20.9 0.00 0.00 0.00 43 1014.3
20260503225634 16 277 4.8 20.9 0.00 0.00 0.00 42 1014.3
20260503225533 16 295 8.0 20.9 0.00 0.00 0.00 42 1014.3
20260503225435 16 289 9.7 20.9 0.00 0.00 0.00 43 1014.3
20260503225333 16 315 14.5 20.9 0.00 0.00 0.00 45 1014.3
20260503225233 16 322 11.3 19.3 0.00 0.00 0.00 44 1014.3
20260503225131 16 306 11.3 20.9 0.00 0.00 0.00 44 1014.3
20260503225050 16 316 11.3 20.9 0.00 0.00 0.00 42 1014.3
20260503224927 16 318 1.6 20.9 0.00 0.00 0.00 41 1014.3
20260503224846 16 315 3.2 20.9 0.00 0.00 0.00 41 1014.3
20260503224735 16 319 6.4 20.9 0.00 0.00 0.00 41 1014.3
20260503224648 16 319 9.7 20.9 0.00 0.00 0.00 42 1014.3
20260503224545 16 320 4.8 20.9 0.00 0.00 0.00 41 1014.3
20260503224504 16 315 8.0 20.9 0.00 0.00 0.00 40 1014.3
20260503224342 16 326 12.9 20.9 0.00 0.00 0.00 40 1014.4
20260503224242 16 316 11.3 20.9 0.00 0.00 0.00 40 1014.4
20260503224139 16 320 9.7 20.9 0.00 0.00 0.00 40 1014.4
20260503224058 16 322 8.0 20.9 0.00 0.00 0.00 40 1014.4
20260503223935 16 323 6.4 20.9 0.00 0.00 0.00 39 1014.4
20260503223840 16 315 9.7 20.9 0.00 0.00 0.00 39 1014.4
20260503223758 16 319 8.0 20.9 0.00 0.00 0.00 42 1014.4
20260503223636 16 301 8.0 20.9 0.00 0.00 0.00 42 1014.4
20260503223554 16 333 11.3 20.9 0.00 0.00 0.00 42 1014.4
20260503223431 16 316 8.0 19.3 0.00 0.00 0.00 42 1014.4
20260503223328 16 326 8.0 19.3 0.00 0.00 0.00 41 1014.4
20260503223238 16 305 6.4 19.3 0.00 0.00 0.00 41 1014.4
20260503223149 16 287 6.4 19.3 0.00 0.00 0.00 41 1014.4
20260503223031 16 322 4.8 19.3 0.00 0.00 0.00 40 1014.4
20260503222929 16 323 4.8 19.3 0.00 0.00 0.00 42 1014.4
20260503222827 16 305 8.0 19.3 0.00 0.00 0.00 42 1014.5
20260503222725 16 328 4.8 19.3 0.00 0.00 0.00 41 1014.5
20260503222624 16 296 8.0 19.3 0.00 0.00 0.00 41 1014.5
20260503222542 16 315 1.6 16.1 0.00 0.00 0.00 41 1014.5
20260503222439 16 325 4.8 16.1 0.00 0.00 0.00 41 1014.5
20260503222341 16 322 6.4 16.1 0.00 0.00 0.00 41 1014.5
20260503222240 16 287 6.4 16.1 0.00 0.00 0.00 41 1014.5
20260503222137 16 284 0.0 16.1 0.00 0.00 0.00 40 1014.5
20260503222057 16 323 3.2 16.1 0.00 0.00 0.00 42 1014.5
20260503221934 16 326 8.0 16.1 0.00 0.00 0.00 42 1014.5
20260503221852 16 326 9.7 16.1 0.00 0.00 0.00 43 1014.5
20260503221733 16 288 11.3 16.1 0.00 0.00 0.00 41 1014.5
20260503221704 16 329 9.7 16.1 0.00 0.00 0.00 42 1014.5
20260503221546 16 309 4.8 16.1 0.00 0.00 0.00 41 1014.5
20260503221444 16 304 1.6 17.7 0.00 0.00 0.00 41 1014.5
20260503221343 16 328 1.6 17.7 0.00 0.00 0.00 41 1014.7
20260503221241 16 328 4.8 17.7 0.00 0.00 0.00 41 1014.7
20260503221140 16 318 8.0 17.7 0.00 0.00 0.00 41 1014.7
20260503221038 16 322 4.8 17.7 0.00 0.00 0.00 42 1014.7
20260503220936 16 323 4.8 17.7 0.00 0.00 0.00 42 1014.7
20260503220839 16 316 9.7 17.7 0.00 0.00 0.00 42 1014.7
20260503220758 16 319 8.0 17.7 0.00 0.00 0.00 41 1014.7
20260503220635 16 330 6.4 19.3 0.00 0.00 0.00 39 1014.7
20260503220534 16 316 6.4 20.9 0.00 0.00 0.00 40 1014.7
20260503220452 16 318 8.0 22.5 0.00 0.00 0.00 41 1014.7
20260503220351 16 332 9.7 22.5 0.00 0.00 0.00 41 1014.7
20260503220240 16 301 9.7 22.5 0.00 0.00 0.00 41 1014.7
20260503220152 16 330 8.0 22.5 0.00 0.00 0.00 41 1014.7
20260503220028 16 325 4.8 22.5 0.00 0.00 0.00 39 1014.7
20260503215931 16 318 9.7 22.5 0.00 0.00 0.00 39 1014.7
20260503215829 16 319 9.7 22.5 0.00 0.00 0.00 39 1014.8
20260503215728 16 312 12.9 22.5 0.00 0.00 0.00 40 1014.8
20260503215647 16 311 12.9 22.5 0.00 0.00 0.00 40 1014.8
20260503215544 16 329 11.3 22.5 0.00 0.00 0.00 42 1014.8
20260503215443 16 289 8.0 22.5 0.00 0.00 0.00 44 1014.8
20260503215342 16 322 9.7 22.5 0.00 0.00 0.00 43 1014.8
20260503215243 16 325 6.4 22.5 0.00 0.00 0.00 42 1014.8
20260503215142 16 319 1.6 22.5 0.00 0.00 0.00 41 1014.8
20260503215100 16 316 4.8 22.5 0.00 0.00 0.00 40 1014.8
20260503214937 16 298 6.4 22.5 0.00 0.00 0.00 42 1014.8
20260503214855 16 330 4.8 22.5 0.00 0.00 0.00 41 1014.8
20260503214734 16 332 8.0 22.5 0.00 0.00 0.00 40 1014.8
20260503214704 16 308 3.2 22.5 0.00 0.00 0.00 40 1014.8
20260503214601 16 330 3.2 22.5 0.00 0.00 0.00 40 1014.8
20260503214423 16 330 8.0 22.5 0.00 0.00 0.00 40 1014.8
20260503214324 16 328 9.7 22.5 0.00 0.00 0.00 39 1015.0
20260503214243 16 329 9.7 22.5 0.00 0.00 0.00 38 1015.0
20260503214141 16 320 4.8 19.3 0.00 0.00 0.00 40 1015.0
20260503214039 16 320 1.6 19.3 0.00 0.00 0.00 40 1015.0
20260503213939 16 311 3.2 19.3 0.00 0.00 0.00 40 1015.0
20260503213837 16 305 9.7 20.9 0.00 0.00 0.00 40 1015.0
20260503213736 16 318 9.7 20.9 0.00 0.00 0.00 41 1015.0
20260503213638 16 313 8.0 20.9 0.00 0.00 0.00 40 1015.0
20260503213557 16 320 3.2 20.9 0.00 0.00 0.00 38 1015.0
20260503213434 16 311 3.2 20.9 0.00 0.00 0.00 38 1015.0
20260503213331 16 325 8.0 20.9 0.00 0.00 0.00 40 1015.0
20260503213242 16 318 8.0 20.9 0.00 0.00 0.00 40 1015.0
20260503213152 16 332 9.7 20.9 0.00 0.00 0.00 41 1015.0
20260503213028 16 325 12.9 20.9 0.00 0.00 0.00 39 1015.0
20260503212931 16 333 14.5 20.9 0.00 0.00 0.00 41 1015.0
20260503212849 16 309 11.3 20.9 0.00 0.00 0.00 42 1015.2
20260503212744 16 316 8.0 20.9 0.00 0.00 0.00 41 1015.2
20260503212703 16 288 11.3 20.9 0.00 0.00 0.00 41 1015.2
20260503212542 16 318 9.7 20.9 0.00 0.00 0.00 40 1015.2
20260503212440 16 319 3.2 20.9 0.00 0.00 0.00 40 1015.2
20260503212338 16 328 3.2 20.9 0.00 0.00 0.00 41 1015.2
20260503212257 16 326 8.0 20.9 0.00 0.00 0.00 41 1015.2
20260503212134 16 318 6.4 20.9 0.00 0.00 0.00 41 1015.2
20260503212036 16 322 4.8 20.9 0.00 0.00 0.00 40 1015.2
20260503211934 16 322 8.0 20.9 0.00 0.00 0.00 39 1015.2
20260503211832 16 328 8.0 20.9 0.00 0.00 0.00 41 1015.2
20260503211742 16 329 12.9 20.9 0.00 0.00 0.00 42 1015.2
20260503211650 16 304 12.9 27.4 0.00 0.00 0.00 41 1015.2
20260503211528 16 323 8.0 27.4 0.00 0.00 0.00 41 1015.2
20260503211427 16 332 3.2 27.4 0.00 0.00 0.00 40 1015.2
20260503211329 16 330 3.2 27.4 0.00 0.00 0.00 39 1015.1
20260503211228 16 301 6.4 27.4 0.00 0.00 0.00 40 1015.1
20260503211126 16 318 12.9 27.4 0.00 0.00 0.00 39 1015.1
20260503211045 16 320 11.3 27.4 0.00 0.00 0.00 39 1015.1
20260503211004 16 328 9.7 27.4 0.00 0.00 0.00 40 1015.1
20260503210841 16 332 16.1 27.4 0.00 0.00 0.00 39 1015.1
20260503210739 16 318 17.7 27.4 0.00 0.00 0.00 41 1015.1
20260503210641 16 328 9.7 17.7 0.00 0.00 0.00 40 1015.1
20260503210539 16 294 8.0 22.5 0.00 0.00 0.00 40 1015.1
20260503210458 16 323 6.4 22.5 0.00 0.00 0.00 41 1015.1
20260503210416 16 312 6.4 22.5 0.00 0.00 0.00 40 1015.1
20260503210314 16 319 1.6 22.5 0.00 0.00 0.00 38 1015.1
20260503210224 16 308 1.6 22.5 0.00 0.00 0.00 38 1015.1
20260503210040 16 304 6.4 22.5 0.00 0.00 0.00 41 1015.1
20260503205940 16 323 3.2 22.5 0.00 0.00 0.00 44 1015.1
20260503205838 16 326 8.0 22.5 0.00 0.00 0.00 43 1015.3
20260503205741 16 325 12.9 22.5 0.00 0.00 0.00 42 1015.3
20260503205640 16 322 11.3 19.3 0.00 0.00 0.00 42 1015.3
20260503205538 16 318 9.7 17.7 0.00 0.00 0.00 41 1015.3
20260503205436 16 285 8.0 17.7 0.00 0.00 0.00 40 1015.3
20260503205335 16 326 4.8 17.7 0.00 0.00 0.00 40 1015.3
20260503205233 16 329 1.6 17.7 0.00 0.00 0.00 39 1015.3
20260503205136 16 328 9.7 17.7 0.00 0.00 0.00 40 1015.3
20260503205033 16 313 4.8 17.7 0.00 0.00 0.00 41 1015.3
20260503204932 16 316 8.0 17.7 0.00 0.00 0.00 41 1015.3
20260503204831 16 335 11.3 17.7 0.00 0.00 0.00 44 1015.3
20260503204743 16 311 6.4 12.9 0.00 0.00 0.00 44 1015.3
20260503204652 16 295 4.8 12.9 0.00 0.00 0.00 44 1015.3
20260503204551 16 336 3.2 12.9 0.00 0.00 0.00 43 1015.3
20260503204428 16 326 4.8 17.7 0.00 0.00 0.00 44 1015.3
20260503204351 16 332 11.3 27.4 0.00 0.00 0.00 43 1015.5
20260503204228 16 322 8.0 27.4 0.00 0.00 0.00 42 1015.5
20260503204127 16 330 1.6 27.4 0.00 0.00 0.00 42 1015.5
20260503204046 16 305 9.7 27.4 0.00 0.00 0.00 41 1015.5
20260503203943 16 329 4.8 27.4 0.00 0.00 0.00 42 1015.5
20260503203841 16 308 3.2 27.4 0.00 0.00 0.00 41 1015.5
20260503203740 16 287 6.4 27.4 0.00 0.00 0.00 41 1015.5
20260503203638 16 305 11.3 27.4 0.00 0.00 0.00 44 1015.5
20260503203540 16 305 14.5 27.4 0.00 0.00 0.00 43 1015.5
20260503203438 16 277 12.9 27.4 0.00 0.00 0.00 41 1015.5
20260503203339 16 318 8.0 25.7 0.00 0.00 0.00 41 1015.5
20260503203259 16 332 6.4 25.7 0.00 0.00 0.00 41 1015.5
20260503203229 16 323 6.4 25.7 0.00 0.00 0.00 43 1015.5
20260503203105 16 322 9.7 25.7 0.00 0.00 0.00 41 1015.5
20260503202942 16 311 8.0 25.7 0.00 0.00 0.00 44 1015.5
20260503202841 16 319 11.3 25.7 0.00 0.00 0.00 44 1015.9
20260503202802 16 296 6.4 25.7 0.00 0.00 0.00 42 1015.9
20260503202621 16 306 9.7 25.7 0.00 0.00 0.00 41 1015.9
20260503202543 16 309 6.4 25.7 0.00 0.00 0.00 43 1015.9
20260503202501 16 318 6.4 17.7 0.00 0.00 0.00 41 1015.9
20260503202337 16 299 4.8 17.7 0.00 0.00 0.00 41 1015.9
20260503202235 16 320 4.8 19.3 0.00 0.00 0.00 41 1015.9
20260503202134 16 335 11.3 19.3 0.00 0.00 0.00 41 1015.9
20260503202032 16 332 8.0 19.3 0.00 0.00 0.00 41 1015.9
20260503201935 16 318 12.9 19.3 0.00 0.00 0.00 44 1015.9
20260503201833 16 305 11.3 19.3 0.00 0.00 0.00 43 1015.9
20260503201752 16 302 9.7 19.3 0.00 0.00 0.00 44 1015.9
20260503201722 16 318 6.4 19.3 0.00 0.00 0.00 45 1015.9
20260503201542 16 322 4.8 19.3 0.00 0.00 0.00 46 1015.9
20260503201441 16 325 12.9 19.3 0.00 0.00 0.00 45 1015.9
20260503201400 16 330 11.3 19.3 0.00 0.00 0.00 44 1016.1
20260503201237 16 288 3.2 17.7 0.00 0.00 0.00 43 1016.1
20260503201138 16 312 1.6 24.1 0.00 0.00 0.00 42 1016.1
20260503201040 16 330 3.2 24.1 0.00 0.00 0.00 42 1016.1
20260503200938 16 318 0.0 24.1 0.00 0.00 0.00 43 1016.1
20260503200835 16 291 3.2 24.1 0.00 0.00 0.00 46 1016.1
20260503200733 16 322 4.8 24.1 0.00 0.00 0.00 46 1016.1
20260503200632 16 315 4.8 24.1 0.00 0.00 0.00 44 1016.1
20260503200531 16 315 1.6 24.1 0.00 0.00 0.00 47 1016.1
20260503200433 16 339 3.2 24.1 0.00 0.00 0.00 44 1016.1
20260503200331 16 326 11.3 24.1 0.00 0.00 0.00 46 1016.1
20260503200229 16 311 11.3 22.5 0.00 0.00 0.00 44 1016.1
20260503200159 16 318 4.8 17.7 0.00 0.00 0.00 44 1016.1
20260503200036 16 329 6.4 20.9 0.00 0.00 0.00 44 1016.1
20260503195934 16 318 4.8 20.9 0.00 0.00 0.00 43 1016.1
20260503195833 16 328 3.2 20.9 0.00 0.00 0.00 42 1016.3
20260503195754 16 323 4.8 20.9 0.00 0.00 0.00 41 1016.3
20260503195631 16 333 14.5 20.9 0.00 0.00 0.00 44 1016.3
20260503195549 16 325 9.7 20.9 0.00 0.00 0.00 44 1016.3
20260503195427 16 323 8.0 20.9 0.00 0.00 0.00 45 1016.3
20260503195326 16 302 6.4 20.9 0.00 0.00 0.00 45 1016.3
20260503195244 16 305 6.4 20.9 0.00 0.00 0.00 47 1016.3
20260503195142 16 313 6.4 20.9 0.00 0.00 0.00 47 1016.3
20260503195026 16 316 14.5 20.9 0.00 0.00 0.00 46 1016.3
20260503194943 16 299 14.5 20.9 0.00 0.00 0.00 48 1016.3
20260503194842 16 316 16.1 20.9 0.00 0.00 0.00 47 1016.3
20260503194741 16 308 11.3 19.3 0.00 0.00 0.00 46 1016.3
20260503194710 16 250 9.7 19.3 0.00 0.00 0.00 45 1016.3
20260503194528 16 308 6.4 17.7 0.00 0.00 0.00 45 1016.3
20260503194425 16 251 3.2 25.7 0.00 0.00 0.00 45 1016.3
20260503194325 16 251 6.4 25.7 0.00 0.00 0.00 46 1016.6
20260503194228 16 305 9.7 25.7 0.00 0.00 0.00 45 1016.6
20260503194126 16 330 1.6 25.7 0.00 0.00 0.00 43 1016.6
20260503194024 16 316 0.0 25.7 0.00 0.00 0.00 43 1016.6
20260503193942 16 308 1.6 25.7 0.00 0.00 0.00 42 1016.6
20260503193841 16 299 6.4 25.7 0.00 0.00 0.00 45 1016.6
20260503193759 16 335 12.9 27.4 0.00 0.00 0.00 45 1016.6
20260503193635 16 312 14.5 27.4 0.00 0.00 0.00 47 1016.6
20260503193532 16 323 11.3 27.4 0.00 0.00 0.00 46 1016.6
20260503193435 16 295 9.7 27.4 0.00 0.00 0.00 45 1016.6
20260503193335 16 319 14.5 27.4 0.00 0.00 0.00 44 1016.6
20260503193244 16 323 1.6 27.4 0.00 0.00 0.00 43 1016.6
20260503193154 16 332 1.6 27.4 0.00 0.00 0.00 44 1016.6
20260503193030 16 332 4.8 27.4 0.00 0.00 0.00 46 1016.6
20260503192927 16 277 12.9 27.4 0.00 0.00 0.00 46 1016.6
20260503192846 16 302 16.1 27.4 0.00 0.00 0.00 45 1016.8
20260503192743 16 280 8.0 22.5 0.00 0.00 0.00 44 1016.8
20260503192646 16 226 8.0 22.5 0.00 0.00 0.00 46 1016.8
20260503192543 16 304 8.0 22.5 0.00 0.00 0.00 47 1016.8
20260503192441 16 326 8.0 22.5 0.00 0.00 0.00 47 1016.8
20260503192340 16 326 6.4 22.5 0.00 0.00 0.00 46 1016.8
20260503192258 16 330 8.0 22.5 0.00 0.00 0.00 45 1016.8
20260503192136 16 289 9.7 22.5 0.00 0.00 0.00 44 1016.8
20260503192035 16 277 11.3 22.5 0.00 0.00 0.00 47 1016.8
20260503191955 16 311 12.9 22.5 0.00 0.00 0.00 47 1016.8
20260503191836 16 301 11.3 25.7 0.00 0.00 0.00 45 1016.8
20260503191755 16 330 6.4 25.7 0.00 0.00 0.00 44 1016.8
20260503191725 16 311 6.4 25.7 0.00 0.00 0.00 44 1016.8
20260503191541 16 323 1.6 25.7 0.00 0.00 0.00 43 1016.8
20260503191440 16 313 3.2 25.7 0.00 0.00 0.00 44 1016.8
20260503191337 16 288 3.2 25.7 0.00 0.00 0.00 45 1016.9
20260503191236 16 330 6.4 25.7 0.00 0.00 0.00 44 1016.9
20260503191135 16 316 9.7 25.7 0.00 0.00 0.00 46 1016.9
20260503191038 16 322 12.9 25.7 0.00 0.00 0.00 46 1016.9
20260503190941 16 326 12.9 25.7 0.00 0.00 0.00 43 1016.9
20260503190838 16 308 6.4 17.7 0.00 0.00 0.00 41 1016.9
20260503190737 16 329 1.6 12.9 0.00 0.00 0.00 41 1016.9
20260503190635 16 323 3.2 14.5 0.00 0.00 0.00 42 1016.9
20260503190553 16 329 6.4 14.5 0.00 0.00 0.00 46 1016.9
20260503190430 16 285 6.4 14.5 0.00 0.00 0.00 42 1016.9
20260503190352 17 320 1.6 14.5 0.00 0.00 0.00 41 1016.9
20260503190240 17 326 9.7 14.5 0.00 0.00 0.00 45 1016.9
20260503190149 17 316 8.0 19.3 0.00 0.00 0.00 41 1016.9
20260503190046 17 342 4.8 19.3 0.00 0.00 0.00 42 1016.9
20260503185924 17 287 0.0 19.3 0.00 0.00 0.00 44 1016.9
20260503185843 17 322 3.2 19.3 0.00 0.00 0.00 44 1017.1
20260503185741 17 275 8.0 19.3 0.00 0.00 0.00 44 1017.1
20260503185702 17 325 4.8 19.3 0.00 0.00 0.00 43 1017.1
20260503185539 17 313 3.2 19.3 0.00 0.00 0.00 45 1017.1
20260503185441 17 268 8.0 19.3 0.00 0.00 0.00 45 1017.1
20260503185401 16 296 14.5 19.3 0.00 0.00 0.00 47 1017.1
20260503185238 16 272 12.9 19.3 0.00 0.00 0.00 46 1017.1
20260503185137 16 254 6.4 19.3 0.00 0.00 0.00 46 1017.1
20260503185034 16 282 3.2 19.3 0.00 0.00 0.00 45 1017.1
20260503184953 16 275 4.8 19.3 0.00 0.00 0.00 45 1017.1
20260503184850 16 330 4.8 19.3 0.00 0.00 0.00 46 1017.1
20260503184811 16 328 4.8 19.3 0.00 0.00 0.00 44 1017.1
20260503184719 16 270 8.0 19.3 0.00 0.00 0.00 46 1017.1
20260503184604 16 299 6.4 19.3 0.00 0.00 0.00 43 1017.1
20260503184441 16 294 6.4 19.3 0.00 0.00 0.00 43 1017.1
20260503184339 16 306 6.4 19.3 0.00 0.00 0.00 45 1017.2
20260503184237 16 272 8.0 19.3 0.00 0.00 0.00 45 1017.2
20260503184135 16 315 8.0 20.9 0.00 0.00 0.00 42 1017.2
20260503184035 16 292 3.2 20.9 0.00 0.00 0.00 40 1017.2
20260503183933 16 311 6.4 20.9 0.00 0.00 0.00 40 1017.2
20260503183835 16 277 4.8 20.9 0.00 0.00 0.00 44 1017.2
20260503183733 16 274 9.7 20.9 0.00 0.00 0.00 44 1017.2
20260503183631 16 299 6.4 20.9 0.00 0.00 0.00 45 1017.2
20260503183530 16 271 3.2 20.9 0.00 0.00 0.00 44 1017.2
20260503183428 16 282 3.2 20.9 0.00 0.00 0.00 45 1017.2
20260503183329 16 282 6.4 20.9 0.00 0.00 0.00 45 1017.2
20260503183232 16 263 12.9 20.9 0.00 0.00 0.00 46 1017.2
20260503183203 16 272 12.9 20.9 0.00 0.00 0.00 45 1017.2
20260503183040 16 271 9.7 16.1 0.00 0.00 0.00 46 1017.2
20260503182937 16 316 6.4 12.9 0.00 0.00 0.00 47 1017.2
20260503182856 16 318 6.4 12.9 0.00 0.00 0.00 44 1017.4
20260503182755 16 322 3.2 12.9 0.00 0.00 0.00 43 1017.4
20260503182635 16 315 6.4 12.9 0.00 0.00 0.00 43 1017.4
20260503182533 16 322 4.8 12.9 0.00 0.00 0.00 41 1017.4
20260503182453 16 319 1.6 12.9 0.00 0.00 0.00 42 1017.4
20260503182334 16 325 1.6 16.1 0.00 0.00 0.00 42 1017.4
20260503182233 16 322 0.0 16.1 0.00 0.00 0.00 43 1017.4
20260503182131 16 298 0.0 16.1 0.00 0.00 0.00 44 1017.4
20260503182030 16 304 4.8 16.1 0.00 0.00 0.00 43 1017.4
20260503181928 16 322 9.7 16.1 0.00 0.00 0.00 42 1017.4
20260503181825 16 319 3.2 16.1 0.00 0.00 0.00 40 1017.4
20260503181740 16 312 1.6 16.1 0.00 0.00 0.00 40 1017.4
20260503181648 16 312 8.0 17.7 0.00 0.00 0.00 43 1017.4
20260503181545 16 272 8.0 17.7 0.00 0.00 0.00 44 1017.4
20260503181443 16 301 6.4 17.7 0.00 0.00 0.00 42 1017.4
20260503181341 16 325 6.4 17.7 0.00 0.00 0.00 40 1017.3
20260503181241 16 323 6.4 17.7 0.00 0.00 0.00 38 1017.3
20260503181139 16 309 4.8 17.7 0.00 0.00 0.00 44 1017.3
20260503181038 16 272 9.7 17.7 0.00 0.00 0.00 44 1017.3
20260503180957 16 281 9.7 17.7 0.00 0.00 0.00 42 1017.3
20260503180859 16 289 9.7 17.7 0.00 0.00 0.00 44 1017.3
20260503180737 16 328 6.4 17.7 0.00 0.00 0.00 42 1017.3
20260503180635 16 308 1.6 16.1 0.00 0.00 0.00 41 1017.3
20260503180534 16 330 1.6 16.1 0.00 0.00 0.00 43 1017.3
20260503180431 16 291 3.2 17.7 0.00 0.00 0.00 43 1017.3
20260503180330 16 292 4.8 17.7 0.00 0.00 0.00 43 1017.3
20260503180240 16 316 8.0 17.7 0.00 0.00 0.00 46 1017.3
20260503180153 16 277 9.7 17.7 0.00 0.00 0.00 45 1017.3
20260503180028 16 305 6.4 17.7 0.00 0.00 0.00 46 1017.3
20260503175927 16 330 6.4 17.7 0.00 0.00 0.00 44 1017.3
20260503175847 16 308 9.7 17.7 0.00 0.00 0.00 47 1017.6
20260503175724 16 311 4.8 17.7 0.00 0.00 0.00 47 1017.6
20260503175642 16 315 6.4 17.7 0.00 0.00 0.00 47 1017.6
20260503175540 16 328 8.0 17.7 0.00 0.00 0.00 44 1017.6
20260503175438 16 330 8.0 16.1 0.00 0.00 0.00 44 1017.6
20260503175340 15 277 0.0 12.9 0.00 0.00 0.00 43 1017.6
20260503175240 15 305 4.8 12.9 0.00 0.00 0.00 42 1017.6
20260503175137 15 325 3.2 12.9 0.00 0.00 0.00 41 1017.6
20260503175034 15 323 3.2 12.9 0.00 0.00 0.00 44 1017.6
20260503174932 15 330 1.6 12.9 0.00 0.00 0.00 43 1017.6
20260503174831 15 323 4.8 12.9 0.00 0.00 0.00 41 1017.6
20260503174749 16 330 9.7 12.9 0.00 0.00 0.00 39 1017.6
20260503174658 16 329 9.7 12.9 0.00 0.00 0.00 39 1017.6
20260503174538 16 325 8.0 12.9 0.00 0.00 0.00 41 1017.6
20260503174438 16 326 1.6 12.9 0.00 0.00 0.00 42 1017.6
20260503174355 16 301 3.2 12.9 0.00 0.00 0.00 40 1017.7
20260503174231 16 312 6.4 12.9 0.00 0.00 0.00 39 1017.7
20260503174131 16 320 1.6 12.9 0.00 0.00 0.00 43 1017.7
20260503174052 16 299 0.0 12.9 0.00 0.00 0.00 43 1017.7
20260503173929 16 299 3.2 12.9 0.00 0.00 0.00 44 1017.7
20260503173848 16 302 4.8 12.9 0.00 0.00 0.00 41 1017.7
20260503173730 16 315 4.8 12.9 0.00 0.00 0.00 41 1017.7
20260503173627 16 299 3.2 12.9 0.00 0.00 0.00 43 1017.7
20260503173546 16 295 1.6 12.9 0.00 0.00 0.00 43 1017.7
20260503173443 16 302 3.2 12.9 0.00 0.00 0.00 44 1017.7
20260503173402 16 292 8.0 12.9 0.00 0.00 0.00 44 1017.7
20260503173239 16 305 9.7 12.9 0.00 0.00 0.00 44 1017.7
20260503173209 16 296 6.4 16.1 0.00 0.00 0.00 44 1017.7
20260503173045 16 291 3.2 16.1 0.00 0.00 0.00 44 1017.7
20260503172942 16 280 3.2 16.1 0.00 0.00 0.00 42 1017.7
20260503172825 16 272 8.0 17.7 0.00 0.00 0.00 42 1017.9
20260503172743 16 264 3.2 17.7 0.00 0.00 0.00 39 1017.9
20260503172642 17 282 1.6 17.7 0.00 0.00 0.00 37 1017.9
20260503172541 17 267 3.2 17.7 0.00 0.00 0.00 41 1017.9
20260503172459 17 253 6.4 17.7 0.00 0.00 0.00 44 1017.9
20260503172337 17 287 9.7 17.7 0.00 0.00 0.00 42 1017.9
20260503172235 17 261 9.7 17.7 0.00 0.00 0.00 46 1017.9
20260503172153 17 296 9.7 17.7 0.00 0.00 0.00 42 1017.9
20260503172030 16 282 8.0 17.7 0.00 0.00 0.00 42 1017.9
20260503171932 16 299 0.0 11.3 0.00 0.00 0.00 41 1017.9
20260503171830 16 257 3.2 16.1 0.00 0.00 0.00 43 1017.9
20260503171741 16 284 4.8 16.1 0.00 0.00 0.00 42 1017.9
20260503171651 16 263 6.4 16.1 0.00 0.00 0.00 43 1017.9
20260503171527 16 270 8.0 19.3 0.00 0.00 0.00 43 1017.9
20260503171445 16 220 3.2 19.3 0.00 0.00 0.00 44 1017.9
20260503171342 16 188 1.6 19.3 0.00 0.00 0.00 44 1018.1
20260503171241 16 164 3.2 19.3 0.00 0.00 0.00 44 1018.1
20260503171144 16 320 6.4 19.3 0.00 0.00 0.00 45 1018.1
20260503171102 16 320 9.7 19.3 0.00 0.00 0.00 46 1018.1
20260503170940 16 298 11.3 19.3 0.00 0.00 0.00 46 1018.1
20260503170858 16 280 8.0 19.3 0.00 0.00 0.00 45 1018.1
20260503170736 16 226 11.3 19.3 0.00 0.00 0.00 45 1018.1
20260503170634 16 313 11.3 19.3 0.00 0.00 0.00 47 1018.1
20260503170532 16 295 6.4 14.5 0.00 0.00 0.00 47 1018.1
20260503170431 16 313 9.7 14.5 0.00 0.00 0.00 47 1018.1
20260503170333 16 322 6.4 14.5 0.00 0.00 0.00 47 1018.1
20260503170251 15 326 4.8 14.5 0.00 0.00 0.00 48 1018.1
20260503170201 15 251 3.2 14.5 0.00 0.00 0.00 47 1018.1
20260503160157 13 316 4.8 12.9 0.00 0.00 0.00 54 1018.4
20260503150935 11 236 6.4 12.9 0.00 0.00 0.00 60 1018.6
20260503150839 11 330 9.7 12.9 0.00 0.00 0.00 62 1018.6
20260503150737 11 332 4.8 11.3 0.00 0.00 0.00 62 1018.6
20260503150634 11 332 4.8 11.3 0.00 0.00 0.00 60 1018.6
20260503150531 11 360 4.8 12.9 0.00 0.00 0.00 62 1018.6
20260503150450 11 44 1.6 12.9 0.00 0.00 0.00 62 1018.6
20260503150327 11 10 3.2 16.1 0.00 0.00 0.00 60 1018.6
20260503150257 11 226 4.8 16.1 0.00 0.00 0.00 61 1018.6
20260503150147 11 69 3.2 16.1 0.00 0.00 0.00 61 1018.6
20260503140235 9 332 8.0 11.3 0.00 0.00 0.00 71 1018.5
20260503140146 9 318 6.4 11.3 0.00 0.00 0.00 71 1018.5
20260503131336 7 329 8.0 9.7 0.00 0.00 0.00 78 1018.1
20260503131255 7 68 6.4 9.7 0.00 0.00 0.00 80 1018.1
20260503131156 7 329 4.8 9.7 0.00 0.00 0.00 80 1018.1
20260503131034 7 223 3.2 9.7 0.00 0.00 0.00 80 1018.1
20260503130931 7 316 1.6 9.7 0.00 0.00 0.00 80 1018.1
20260503130831 7 222 1.6 9.7 0.00 0.00 0.00 80 1018.1
20260503130751 7 318 3.2 9.7 0.00 0.00 0.00 80 1018.1
20260503130628 7 332 3.2 9.7 0.00 0.00 0.00 80 1018.1
20260503130526 7 267 8.0 9.7 0.00 0.00 0.00 80 1018.1
20260503130428 7 200 4.8 9.7 0.00 0.00 0.00 80 1018.1
20260503130326 7 288 6.4 9.7 0.00 0.00 0.00 80 1018.1
20260503130237 7 323 8.0 9.7 0.00 0.00 0.00 80 1018.1
20260503130146 7 295 6.4 9.7 0.00 0.00 0.00 80 1018.1
20260503120143 6 333 11.3 17.7 0.00 0.00 0.00 86 1017.5
20260503110824 6 270 11.3 17.7 0.00 0.00 0.00 90 1016.7
20260503110742 6 308 12.9 17.7 0.00 0.00 0.00 90 1016.7
20260503110642 6 260 11.3 17.7 0.00 0.00 0.00 90 1016.7
20260503110541 6 333 9.7 17.7 0.00 0.00 0.00 90 1016.7
20260503110459 6 65 14.5 17.7 0.00 0.00 0.00 90 1016.7
20260503110336 6 219 11.3 17.7 0.00 0.00 0.00 90 1016.7
20260503110240 6 319 12.9 17.7 0.00 0.00 0.00 90 1016.7
20260503110210 6 199 11.3 17.7 0.00 0.00 0.00 90 1016.7
20260503100247 6 80 12.9 20.9 0.00 0.00 0.00 90 1016.5
20260503100218 6 100 14.5 20.9 0.00 0.00 0.00 90 1016.5
20260503090424 6 329 11.3 17.7 0.00 0.00 0.00 90 1016.3
20260503090343 6 326 11.3 17.7 0.00 0.00 0.00 90 1016.3
20260503090242 6 284 8.0 17.7 0.00 0.00 0.00 90 1016.3
20260503090152 6 333 6.4 17.7 0.00 0.00 0.00 90 1016.3
20260503081529 6 333 8.0 12.9 0.00 0.00 0.00 89 1016.1
20260503081426 6 333 8.0 12.9 0.00 0.00 0.00 89 1016.1
20260503081330 6 333 8.0 12.9 0.00 0.00 0.00 89 1015.8
20260503081229 6 335 9.7 12.9 0.00 0.00 0.00 89 1015.8
20260503081128 7 319 8.0 12.9 0.00 0.00 0.00 89 1015.8
20260503081025 7 335 4.8 12.9 0.00 0.00 0.00 89 1015.8
20260503080924 7 322 6.4 12.9 0.00 0.00 0.00 88 1015.8
20260503080843 7 315 6.4 12.9 0.00 0.00 0.00 88 1015.8
20260503080740 7 335 9.7 12.9 0.00 0.00 0.00 88 1015.8
20260503080658 7 326 8.0 12.9 0.00 0.00 0.00 88 1015.8
20260503080541 7 171 9.7 14.5 0.00 0.00 0.00 88 1015.8
20260503080459 7 328 11.3 14.5 0.00 0.00 0.00 88 1015.8
20260503080356 7 184 9.7 16.1 0.00 0.00 0.00 88 1015.8
20260503080233 7 333 6.4 16.1 0.00 0.00 0.00 88 1015.8
20260503080203 7 171 8.0 16.1 0.00 0.00 0.00 88 1015.8
20260503072941 7 332 8.0 17.7 0.00 0.00 0.00 87 1015.6
20260503072840 7 320 11.3 17.7 0.00 0.00 0.00 87 1015.5
20260503072741 7 328 11.3 17.7 0.00 0.00 0.00 87 1015.5
20260503072640 7 333 11.3 16.1 0.00 0.00 0.00 87 1015.5
20260503072541 7 329 9.7 16.1 0.00 0.00 0.00 87 1015.5
20260503072439 7 333 8.0 16.1 0.00 0.00 0.00 87 1015.5
20260503072357 7 196 6.4 16.1 0.00 0.00 0.00 87 1015.5
20260503072235 7 332 9.7 16.1 0.00 0.00 0.00 87 1015.5
20260503072154 7 312 9.7 16.1 0.00 0.00 0.00 87 1015.5
20260503072030 7 333 11.3 16.1 0.00 0.00 0.00 87 1015.5
20260503071930 7 247 11.3 16.1 0.00 0.00 0.00 87 1015.5
20260503071836 7 232 9.7 16.1 0.00 0.00 0.00 87 1015.5
20260503071733 7 277 6.4 16.1 0.00 0.00 0.00 86 1015.5
20260503071704 7 323 9.7 16.1 0.00 0.00 0.00 86 1015.5
20260503071543 7 329 11.3 16.1 0.00 0.00 0.00 86 1015.5
20260503071441 7 333 12.9 16.1 0.00 0.00 0.00 86 1015.5
20260503071339 7 316 11.3 16.1 0.00 0.00 0.00 86 1015.5
20260503071237 7 191 9.7 16.1 0.00 0.00 0.00 86 1015.5
20260503071200 7 330 8.0 16.1 0.00 0.00 0.00 86 1015.5
20260503071041 7 312 9.7 16.1 0.00 0.00 0.00 86 1015.5
20260503070939 7 104 11.3 17.7 0.00 0.00 0.00 86 1015.5
20260503070837 7 175 11.3 17.7 0.00 0.00 0.00 86 1015.5
20260503070756 7 311 9.7 17.7 0.00 0.00 0.00 86 1015.5
20260503070632 7 220 11.3 19.3 0.00 0.00 0.00 86 1015.5
20260503070531 7 315 6.4 19.3 0.00 0.00 0.00 86 1015.5
20260503070430 7 229 8.0 19.3 0.00 0.00 0.00 86 1015.5
20260503070333 7 326 11.3 19.3 0.00 0.00 0.00 86 1015.5
20260503070303 7 265 12.9 19.3 0.00 0.00 0.00 86 1015.5
20260503070151 7 274 11.3 19.3 0.00 0.00 0.00 85 1015.5
20260503060329 8 284 9.7 19.3 0.00 0.00 0.00 81 1015.1
20260503060244 8 304 8.0 19.3 0.00 0.00 0.00 81 1015.1
20260503060154 8 330 11.3 19.3 0.00 0.00 0.00 81 1015.1
20260503055127 8 325 12.9 19.3 0.00 0.00 0.00 80 1015.1
20260503055026 8 319 8.0 20.9 0.00 0.00 0.00 80 1015.1
20260503054924 8 330 9.7 20.9 0.00 0.00 0.00 80 1015.1
20260503054827 8 291 11.3 20.9 0.00 0.00 0.00 79 1015.1
20260503054726 8 227 9.7 20.9 0.00 0.00 0.00 79 1015.1
20260503054656 8 192 9.7 20.9 0.00 0.00 0.00 79 1015.1
20260503054534 8 333 12.9 20.9 0.00 0.00 0.00 79 1015.1
20260503054432 8 335 12.9 22.5 0.00 0.00 0.00 79 1015.1
20260503054330 8 280 11.3 22.5 0.00 0.00 0.00 79 1015.1
20260503054249 8 257 17.7 22.5 0.00 0.00 0.00 79 1015.1
20260503054206 8 240 14.5 22.5 0.00 0.00 0.00 79 1015.1
20260503054104 8 261 11.3 22.5 0.00 0.00 0.00 79 1015.1
20260503053943 8 282 11.3 22.5 0.00 0.00 0.00 79 1015.1
20260503053841 8 113 8.0 22.5 0.00 0.00 0.00 78 1015.1
20260503053739 8 227 14.5 22.5 0.00 0.00 0.00 78 1015.1
20260503053657 8 199 19.3 22.5 0.00 0.00 0.00 78 1015.1
20260503053555 8 280 17.7 22.5 0.00 0.00 0.00 78 1015.1
20260503053452 8 360 11.3 19.3 0.00 0.00 0.00 78 1015.1
20260503053351 8 312 11.3 19.3 0.00 0.00 0.00 77 1015.1
20260503053240 8 315 4.8 19.3 0.00 0.00 0.00 77 1015.1
20260503053149 8 302 6.4 19.3 0.00 0.00 0.00 77 1015.1
20260503053029 8 323 12.9 19.3 0.00 0.00 0.00 77 1015.1
20260503052928 8 271 11.3 17.7 0.00 0.00 0.00 77 1015.1
20260503052847 8 247 9.7 17.7 0.00 0.00 0.00 77 1015.0
20260503052725 8 254 11.3 17.7 0.00 0.00 0.00 77 1015.0
20260503052643 8 315 12.9 17.7 0.00 0.00 0.00 77 1015.0
20260503052601 8 239 11.3 17.7 0.00 0.00 0.00 77 1015.0
20260503052438 8 251 11.3 17.7 0.00 0.00 0.00 77 1015.0
20260503052336 8 250 11.3 17.7 0.00 0.00 0.00 77 1015.0
20260503052240 8 320 11.3 17.7 0.00 0.00 0.00 77 1015.0
20260503052138 8 326 8.0 17.7 0.00 0.00 0.00 77 1015.0
20260503052056 8 280 8.0 17.7 0.00 0.00 0.00 76 1015.0
20260503051934 8 90 11.3 17.7 0.00 0.00 0.00 76 1015.0
20260503051833 8 319 9.7 17.7 0.00 0.00 0.00 76 1015.0
20260503051732 8 288 9.7 17.7 0.00 0.00 0.00 76 1015.0
20260503051701 8 186 8.0 19.3 0.00 0.00 0.00 76 1015.0
20260503051538 8 152 6.4 19.3 0.00 0.00 0.00 76 1015.0
20260503051441 8 339 8.0 19.3 0.00 0.00 0.00 75 1015.0
20260503051339 8 332 8.0 19.3 0.00 0.00 0.00 75 1015.0
20260503051242 8 178 8.0 19.3 0.00 0.00 0.00 75 1015.0
20260503051159 8 236 8.0 19.3 0.00 0.00 0.00 75 1015.0
20260503051035 8 277 6.4 19.3 0.00 0.00 0.00 75 1015.0
20260503050934 8 299 8.0 20.9 0.00 0.00 0.00 75 1015.0
20260503050834 8 268 11.3 20.9 0.00 0.00 0.00 75 1015.0
20260503050735 8 223 9.7 20.9 0.00 0.00 0.00 75 1015.0
20260503050635 8 322 9.7 20.9 0.00 0.00 0.00 75 1015.0
20260503050531 8 254 12.9 20.9 0.00 0.00 0.00 75 1015.0
20260503050429 8 270 9.7 24.1 0.00 0.00 0.00 75 1015.0
20260503050327 8 268 11.3 24.1 0.00 0.00 0.00 75 1015.0
20260503050226 8 179 8.0 24.1 0.00 0.00 0.00 75 1015.0
20260503050158 8 162 11.3 24.1 0.00 0.00 0.00 75 1015.0
20260503050038 8 267 11.3 24.1 0.00 0.00 0.00 74 1015.0
20260503045938 8 316 12.9 24.1 0.00 0.00 0.00 74 1015.0
20260503045837 8 337 12.9 24.1 0.00 0.00 0.00 74 1015.0
20260503045734 8 340 17.7 24.1 0.00 0.00 0.00 74 1015.0
20260503045632 9 219 11.3 22.5 0.00 0.00 0.00 74 1015.0
20260503045531 9 333 8.0 22.5 0.00 0.00 0.00 74 1015.0
20260503045430 9 116 14.5 22.5 0.00 0.00 0.00 74 1015.0
20260503045352 9 120 11.3 22.5 0.00 0.00 0.00 74 1015.0
20260503045231 9 295 8.0 22.5 0.00 0.00 0.00 74 1015.0
20260503045129 9 209 14.5 22.5 0.00 0.00 0.00 74 1015.0
20260503045027 9 185 11.3 22.5 0.00 0.00 0.00 73 1015.0
20260503044946 9 311 16.1 22.5 0.00 0.00 0.00 73 1015.0
20260503044843 9 333 14.5 20.9 0.00 0.00 0.00 73 1015.0
20260503044741 9 294 12.9 19.3 0.00 0.00 0.00 73 1015.0
20260503044710 9 162 12.9 19.3 0.00 0.00 0.00 73 1015.0
20260503044546 9 182 11.3 19.3 0.00 0.00 0.00 73 1015.0
20260503044444 9 316 9.7 19.3 0.00 0.00 0.00 73 1015.0
20260503044341 9 347 12.9 19.3 0.00 0.00 0.00 73 1014.9
20260503044238 9 323 12.9 19.3 0.00 0.00 0.00 73 1014.9
20260503044136 9 330 12.9 19.3 0.00 0.00 0.00 72 1014.9
20260503044034 9 213 11.3 19.3 0.00 0.00 0.00 72 1014.9
20260503043955 9 171 6.4 19.3 0.00 0.00 0.00 72 1014.9
20260503043831 9 304 11.3 19.3 0.00 0.00 0.00 72 1014.9
20260503043730 9 258 9.7 19.3 0.00 0.00 0.00 72 1014.9
20260503043648 9 227 8.0 19.3 0.00 0.00 0.00 72 1014.9
20260503043553 9 217 14.5 19.3 0.00 0.00 0.00 72 1014.9
20260503043430 9 313 12.9 19.3 0.00 0.00 0.00 72 1014.9
20260503043329 9 270 12.9 19.3 0.00 0.00 0.00 72 1014.9
20260503043238 9 333 6.4 19.3 0.00 0.00 0.00 72 1014.9
20260503043148 9 240 8.0 19.3 0.00 0.00 0.00 72 1014.9
20260503043026 9 144 12.9 19.3 0.00 0.00 0.00 72 1014.9
20260503042924 9 251 8.0 19.3 0.00 0.00 0.00 72 1014.9
20260503042843 9 294 11.3 19.3 0.00 0.00 0.00 72 1014.8
20260503042804 9 267 12.9 20.9 0.00 0.00 0.00 71 1014.8
20260503042641 9 304 12.9 22.5 0.00 0.00 0.00 71 1014.8
20260503042540 9 330 11.3 22.5 0.00 0.00 0.00 71 1014.8
20260503042440 9 174 8.0 22.5 0.00 0.00 0.00 71 1014.8
20260503042338 9 304 9.7 22.5 0.00 0.00 0.00 71 1014.8
20260503042257 9 257 11.3 22.5 0.00 0.00 0.00 71 1014.8
20260503042133 9 312 11.3 22.5 0.00 0.00 0.00 71 1014.8
20260503042035 9 333 11.3 22.5 0.00 0.00 0.00 71 1014.8
20260503041934 9 332 11.3 22.5 0.00 0.00 0.00 71 1014.8
20260503041831 9 333 16.1 22.5 0.00 0.00 0.00 71 1014.8
20260503041730 9 256 16.1 20.9 0.00 0.00 0.00 71 1014.8
20260503041700 9 168 11.3 20.9 0.00 0.00 0.00 71 1014.8
20260503041538 10 275 8.0 20.9 0.00 0.00 0.00 70 1014.8
20260503041438 10 113 11.3 20.9 0.00 0.00 0.00 70 1014.8
20260503041356 10 316 8.0 16.1 0.00 0.00 0.00 70 1014.9
20260503041241 10 328 9.7 16.1 0.00 0.00 0.00 70 1014.9
20260503041138 10 203 11.3 16.1 0.00 0.00 0.00 70 1014.9
20260503041057 10 264 11.3 16.1 0.00 0.00 0.00 70 1014.9
20260503040933 10 330 6.4 16.1 0.00 0.00 0.00 70 1014.9
20260503040831 10 195 6.4 16.1 0.00 0.00 0.00 70 1014.9
20260503040730 10 325 6.4 16.1 0.00 0.00 0.00 70 1014.9
20260503040630 10 282 9.7 17.7 0.00 0.00 0.00 69 1014.9
20260503040538 10 150 11.3 20.9 0.00 0.00 0.00 69 1014.9
20260503040335 10 167 8.0 20.9 0.00 0.00 0.00 69 1014.9
20260503040234 10 127 8.0 20.9 0.00 0.00 0.00 69 1014.9
20260503040205 10 333 9.7 20.9 0.00 0.00 0.00 69 1014.9
20260503040042 10 251 9.7 20.9 0.00 0.00 0.00 69 1014.9
20260503035941 10 316 11.3 20.9 0.00 0.00 0.00 69 1014.9
20260503035824 10 88 12.9 20.9 0.00 0.00 0.00 69 1014.8
20260503035742 10 302 14.5 20.9 0.00 0.00 0.00 69 1014.8
20260503035640 10 182 14.5 20.9 0.00 0.00 0.00 69 1014.8
20260503035539 10 332 8.0 17.7 0.00 0.00 0.00 69 1014.8
20260503035439 10 212 9.7 17.7 0.00 0.00 0.00 69 1014.8
20260503035336 10 150 6.4 17.7 0.00 0.00 0.00 69 1014.8
20260503035255 10 332 3.2 17.7 0.00 0.00 0.00 69 1014.8
20260503035136 10 335 9.7 17.7 0.00 0.00 0.00 68 1014.8
20260503035035 10 234 6.4 17.7 0.00 0.00 0.00 68 1014.8
20260503034932 10 229 11.3 17.7 0.00 0.00 0.00 68 1014.8
20260503034831 10 328 12.9 17.7 0.00 0.00 0.00 68 1014.8
20260503034801 10 291 6.4 16.1 0.00 0.00 0.00 68 1014.8
20260503034650 10 109 9.7 16.1 0.00 0.00 0.00 68 1014.8
20260503034529 10 335 8.0 16.1 0.00 0.00 0.00 69 1014.8
20260503034446 10 244 4.8 16.1 0.00 0.00 0.00 68 1014.8
20260503034344 10 298 6.4 16.1 0.00 0.00 0.00 68 1014.7
20260503034245 10 309 6.4 17.7 0.00 0.00 0.00 68 1014.7
20260503034205 10 333 4.8 19.3 0.00 0.00 0.00 68 1014.7
20260503034103 10 229 1.6 19.3 0.00 0.00 0.00 68 1014.7
20260503033940 10 82 6.4 19.3 0.00 0.00 0.00 68 1014.7
20260503033839 10 96 11.3 19.3 0.00 0.00 0.00 68 1014.7
20260503033738 10 295 8.0 19.3 0.00 0.00 0.00 68 1014.7
20260503033636 10 332 8.0 19.3 0.00 0.00 0.00 68 1014.7
20260503033533 10 271 8.0 19.3 0.00 0.00 0.00 68 1014.7
20260503033435 10 93 9.7 19.3 0.00 0.00 0.00 68 1014.7
20260503033334 10 308 14.5 20.9 0.00 0.00 0.00 68 1014.7
20260503033243 10 333 9.7 20.9 0.00 0.00 0.00 68 1014.7
20260503033152 10 167 8.0 20.9 0.00 0.00 0.00 67 1014.7
20260503033028 10 322 9.7 20.9 0.00 0.00 0.00 67 1014.7
20260503032927 10 185 11.3 20.9 0.00 0.00 0.00 67 1014.7
20260503032825 10 240 6.4 20.9 0.00 0.00 0.00 67 1014.7
20260503032749 10 92 11.3 20.9 0.00 0.00 0.00 66 1014.7
20260503032628 10 93 11.3 20.9 0.00 0.00 0.00 66 1014.7
20260503032545 10 208 14.5 20.9 0.00 0.00 0.00 66 1014.7
20260503032443 10 178 12.9 20.9 0.00 0.00 0.00 66 1014.7
20260503032341 10 215 9.7 20.9 0.00 0.00 0.00 66 1014.7
20260503032240 10 301 14.5 20.9 0.00 0.00 0.00 66 1014.7
20260503032159 10 289 14.5 19.3 0.00 0.00 0.00 66 1014.7
20260503032037 10 332 9.7 19.3 0.00 0.00 0.00 66 1014.7
20260503031955 10 6 11.3 19.3 0.00 0.00 0.00 65 1014.7
20260503031857 10 312 11.3 19.3 0.00 0.00 0.00 65 1014.7
20260503031815 10 271 8.0 19.3 0.00 0.00 0.00 66 1014.7
20260503031701 10 247 9.7 20.9 0.00 0.00 0.00 65 1014.7
20260503031539 10 311 8.0 20.9 0.00 0.00 0.00 65 1014.7
20260503031438 10 326 11.3 20.9 0.00 0.00 0.00 65 1014.7
20260503031337 10 359 8.0 22.5 0.00 0.00 0.00 65 1014.7
20260503031236 10 333 9.7 22.5 0.00 0.00 0.00 65 1014.7
20260503031134 10 305 8.0 22.5 0.00 0.00 0.00 65 1014.7
20260503031036 10 281 3.2 22.5 0.00 0.00 0.00 65 1014.7
20260503030954 10 199 9.7 22.5 0.00 0.00 0.00 64 1014.7
20260503030832 10 333 12.9 22.5 0.00 0.00 0.00 64 1014.7
20260503030732 11 233 11.3 22.5 0.00 0.00 0.00 65 1014.7
20260503030650 11 52 6.4 22.5 0.00 0.00 0.00 64 1014.7
20260503030527 11 333 12.9 22.5 0.00 0.00 0.00 64 1014.7
20260503030427 11 54 11.3 22.5 0.00 0.00 0.00 64 1014.7
20260503030325 11 167 11.3 17.7 0.00 0.00 0.00 64 1014.7
20260503030227 11 199 8.0 17.7 0.00 0.00 0.00 64 1014.7
20260503030158 11 333 6.4 17.7 0.00 0.00 0.00 64 1014.7
20260503030034 11 330 4.8 17.7 0.00 0.00 0.00 64 1014.7